{"data":{"norad_id":66410,"epoch":"2026-09-20T21:59:54.427488Z","epoch_age_seconds":91954,"freshness":"FRESH","line1":"1 66410U 25256B   26263.91660217  .00000245  00000+0  74060-4 0  9999","line2":"2 66410  98.2447 328.2583 0014685  46.5280 313.7133 14.50270158 45770","mean_motion":14.50270158,"eccentricity":0.0014685,"inclination_deg":98.2447,"raan_deg":328.2583,"arg_perigee_deg":46.528,"mean_anomaly_deg":313.7133,"bstar":7.406e-5,"rev_number":4577,"period_min":99.291845181855,"perigee_km":714.33566574573,"apogee_km":735.19689267677,"semimajor_km":7102.9032792113,"source":"CELESTRAK","updated_at":"2026-09-21T09:00:15.962330Z"}}